Weather History for KNPA - October, 2012

Change the Weather History Date:

Wednesday, October 31, 2012

  Actual Average (KPNS) Record (KPNS)
Temperature  
Mean Temperature 58 °F 65 °F  
Max Temperature 73 °F 75 °F 87 °F (1950)
Min Temperature 44 °F 56 °F 32 °F (1993)
Degree Days  
Heating Degree Days 6 3  
Month to date heating degree days 35  
Since 1 July heating degree days 38  
Cooling Degree Days 0 3  
Month to date cooling degree days 180  
Year to date cooling degree days 2550  
Growing Degree Days 8 (Base 50)    
Moisture  
Dew Point 49 °F    
Average Humidity 66    
Maximum Humidity 93    
Minimum Humidity 38    
Precipitation  
Precipitation 0.00 in 0.17 in 1.19 in (1897)
Month to date precipitation 5.24  
Year to date precipitation 55.99  
Sea Level Pressure  
Sea Level Pressure 30.01 in    
Wind  
Wind Speed 3 mph (WSW)    
Max Wind Speed 10 mph    
Max Gust Speed 18 mph    
Visibility 10 miles    
Events      
T = Trace of Precipitation, MM = Missing Value Source: NWS Daily Summary

Daily Weather History Graph

Daily Weather History Graph

Search for Another Location

Airport or City:

Trip Planner

Search our weather history database for the weather conditions in past years. The results will help you decide how hot, cold, wet, or windy it might be!

Date:

Astronomy

Oct. 31, 2012 Rise Set
Actual Time 7:03 AM CDT 6:02 PM CDT
Civil Twilight 6:38 AM CDT 6:26 PM CDT
Nautical Twilight 6:10 AM CDT 6:55 PM CDT
Astronomical Twilight 5:41 AM CDT 7:23 PM CDT
Moon 7:20 PM CDT (10/31) 8:36 AM CDT (10/31)
Length of Visible Light 11h 48m
Length of Day
10h 58m
Full, 97% of the Moon is Illuminated
Oct 31
Full
Nov 6
Last Quarter
Nov 13
New
Nov 20
First Quarter
Nov 28
Full

Hourly Weather History & Observations

Time (CDT) Temp. Dew Point Humidity Pressure Visibility Wind Dir Wind Speed Gust Speed Precip Events Conditions
12:56 AM 51.1 °F 41.0 °F 68% 30.01 in 10.0 mi Calm Calm - N/A   Clear
1:56 AM 53.1 °F 41.0 °F 64% 30.01 in 10.0 mi West 4.6 mph - N/A   Clear
2:56 AM 51.1 °F 41.0 °F 68% 30.01 in 10.0 mi Calm Calm - N/A   Clear
3:56 AM 48.9 °F 41.0 °F 74% 30.01 in 10.0 mi Calm Calm - N/A   Clear
4:56 AM 50.0 °F 42.1 °F 74% 30.01 in 10.0 mi Calm Calm - N/A   Clear
5:56 AM 45.0 °F 42.1 °F 90% 30.02 in 10.0 mi Calm Calm - N/A   Clear
5:58 AM 44.6 °F 42.8 °F 93% 30.02 in 10.0 mi Calm Calm - N/A   Partly Cloudy
6:56 AM 48.9 °F 42.1 °F 77% 30.03 in 10.0 mi WNW 3.5 mph - N/A   Partly Cloudy
7:56 AM 52.0 °F 44.1 °F 74% 30.05 in 10.0 mi Calm Calm - N/A   Partly Cloudy
8:56 AM 59.0 °F 45.0 °F 60% 30.05 in 10.0 mi WNW 5.8 mph - N/A   Partly Cloudy
9:56 AM 66.0 °F 45.0 °F 47% 30.06 in 10.0 mi Variable 5.8 mph - N/A   Partly Cloudy
10:56 AM 69.1 °F 46.0 °F 44% 30.05 in 10.0 mi Variable 6.9 mph - N/A   Partly Cloudy
11:56 AM 71.1 °F 46.0 °F 41% 30.04 in 10.0 mi West 4.6 mph 17.3 mph N/A   Partly Cloudy
12:56 PM 73.0 °F 51.1 °F 46% 30.01 in 10.0 mi SW 10.4 mph 18.4 mph N/A   Clear
1:56 PM 73.0 °F 48.0 °F 41% 29.99 in 10.0 mi West 8.1 mph - N/A   Partly Cloudy
2:56 PM 73.0 °F 46.0 °F 38% 29.97 in 10.0 mi WSW 8.1 mph - N/A   Scattered Clouds
3:56 PM 72.0 °F 53.1 °F 51% 29.96 in 10.0 mi Variable 6.9 mph 16.1 mph N/A   Partly Cloudy
4:56 PM 70.0 °F 48.9 °F 47% 29.97 in 10.0 mi WSW 6.9 mph - N/A   Partly Cloudy
5:56 PM 66.0 °F 54.0 °F 65% 29.97 in 10.0 mi WSW 4.6 mph - N/A   Partly Cloudy
6:56 PM 63.0 °F 55.9 °F 78% 29.97 in 10.0 mi Calm Calm - N/A   Partly Cloudy
7:56 PM 64.0 °F 57.9 °F 80% 29.99 in 10.0 mi WSW 4.6 mph - N/A   Clear
8:56 PM 63.0 °F 57.9 °F 84% 29.99 in 10.0 mi WSW 4.6 mph - N/A   Clear
9:56 PM 64.9 °F 59.0 °F 81% 29.99 in 10.0 mi WSW 4.6 mph - N/A   Clear
10:56 PM 66.0 °F 61.0 °F 84% 29.99 in 10.0 mi WSW 5.8 mph - N/A   Clear
11:56 PM 66.0 °F 61.0 °F 84% 29.98 in 10.0 mi WSW 4.6 mph - N/A   Clear